Overview Statistics Trail Chart Weather Telemetry Raw packets
 

This is the latest recevied weather packets stored in our database for station/object KB0Y. If no packets are shown the sender has not sent any weather packets the latest 10 day(s).

<< 10 11 12 13 14 15 16 >>
Time Temp. Humidity Pressure Rain* Wind** Luminosity Snow
1788546956 31.67° C 80% 1018.6 hPa 0 mm - 161 W/m² -
1788546650 31.67° C 80% 1018.6 hPa 0 mm - 199 W/m² -
1788546341 31.67° C 79% 1018.9 hPa 0 mm - 219 W/m² -
1788546041 32.22° C 78% 1018.6 hPa 0 mm - 505 W/m² -
1788545737 31.67° C 79% 1018.6 hPa 0 mm - 570 W/m² -
1788545437 31.67° C 79% 1018.9 hPa 0 mm - 571 W/m² -
1788545131 31.67° C 78% 1018.6 hPa 0 mm - 572 W/m² -
1788544826 31.67° C 78% 1018.9 hPa 0 mm - 164 W/m² -
1788544520 31.11° C 78% 1018.9 hPa 0 mm - 546 W/m² -
1788544219 31.11° C 80% 1018.9 hPa 0 mm - 509 W/m² -
1788543914 31.11° C 81% 1018.9 hPa 0 mm - 498 W/m² -
1788543611 31.11° C 79% 1018.9 hPa 0 mm - 491 W/m² -
1788543305 31.11° C 81% 1019.3 hPa 0 mm - 486 W/m² -
1788543001 31.11° C 82% 1019.6 hPa 0 mm - 520 W/m² -
1788542696 30.56° C 80% 1019.6 hPa 0 mm - 509 W/m² -
1788542390 30.56° C 80% 1020 hPa 0 mm - 510 W/m² -
1788542086 30.56° C 82% 1020 hPa 0 mm - 428 W/m² -
1788541782 30.56° C 81% 1020.3 hPa 0 mm - 240 W/m² -
1788541481 30° C 82% 1020 hPa 0 mm - 562 W/m² -
1788541177 30° C 83% 1020.3 hPa 0 mm - 468 W/m² -
1788540876 30° C 82% 1020.3 hPa 0 mm - 576 W/m² -
1788540575 30° C 84% 1020.3 hPa 0 mm - 567 W/m² -
1788540270 29.44° C 86% 1020.6 hPa 0 mm - 162 W/m² -
1788539967 30° C 85% 1020.6 hPa 0 mm - 167 W/m² -
1788539666 30° C 86% 1020.6 hPa 0 mm - 414 W/m² -

* Rain latest hour (hover to see other rain measurements)
** Current wind speed in m/s (hover to see current wind gust speed)